Starlink 30176

operational
NORAD ID: 57477 Int'l Des: 2023-107 Owner: SPXS Country: US Constellation: starlink
LEOCIRCULAR

Über Starlink 30176

Beschreibung wird geladen...

Live-Position

3D-Globus wird geladen...

Nächste Überflüge

Höhenverlauf

Altitude vs Time

uPlot chart will show altitude changes over time

Zweizeiliger Elementsatz

1 57477U 23107W 25353.21477226 .00004385 00000-0 33939-3 0 9992
2 57477 43.0028 55.7485 0001387 271.0820 88.9863 15.02541923133014
Epoch: 19. Dez. 2025 • Age: 14 hours

Aktueller Status

Höhe 570.3 km
Geschwindigkeit 7.58 km/s
Subsatellitenpunkt -40.06°S, 77.71°W
Startdatum 28. Juli 2023
Alter 2.3 years
Typ internet

Technische Details

Klassifizierung Payload
Masse 730.00 kg
Trockenmasse 700.00 kg
Gesamtmasse 730.00 kg
Länge 0.30 m
Durchmesser 4.10 m
Spannweite 29.00 m
Form Box + pan
Hersteller SPXS
Bus-Typ Starlink V2M
Phasenstatus In Orbit
Besitzer/Staat SPXS/US

Große Konstellationen

Loading constellations...